The Dalles, WA

11:15 PM PST on December 17, 2017 (GMT -0800)
Columbia Gorge Regional-The Dalles

Weather History for KDLS - August, 2013

Change the Weather History Date:

Wednesday, August 21, 2013

  Actual Average Record
Temperature  
Mean Temperature 76 °F -  
Max Temperature 96 °F 85 °F 103 °F (1951)
Min Temperature 57 °F 56 °F 47 °F (1960)
Cooling Degree Days 11    
Growing Degree Days 26 (Base 50)    
Moisture  
Dew Point 46 °F    
Average Humidity 43    
Maximum Humidity 70    
Minimum Humidity 13    
Precipitation  
Precipitation 0.00 in - - ()
Sea Level Pressure  
Sea Level Pressure 29.94 in    
Wind  
Wind Speed 3 mph (ESE)    
Max Wind Speed 14 mph    
Max Gust Speed 20 mph    
Visibility 8 miles    
Events      
Averages and records for this station are not official NWS values.
T = Trace of Precipitation, MM = Missing Value Source: NWS Daily Summary

Daily Weather History Graph

Daily Weather History Graph

Search for Another Location

Airport or City:

Trip Planner

Search our weather history database for the weather conditions in past years. The results will help you decide how hot, cold, wet, or windy it might be!

Date:

Astronomy

Aug. 21, 2013 Rise Set
Actual Time 6:12 AM PDT 8:01 PM PDT
Civil Twilight 5:41 AM PDT 8:33 PM PDT
Nautical Twilight 5:02 AM PDT 9:11 PM PDT
Astronomical Twilight 4:20 AM PDT 9:53 PM PDT
Moon 8:06 PM PDT (8/21) 7:04 AM PDT (8/21)
Length of Visible Light 14h 52m
Length of Day
13h 48m
Full, 99% of the Moon is Illuminated
Aug 21
Full
Aug 28
Last Quarter
Sep 5
New
Sep 12
First Quarter
Sep 19
Full

Hourly Weather History & Observations

Time (PDT) Temp. Dew Point Humidity Pressure Visibility Wind Dir Wind Speed Gust Speed Precip Events Conditions
12:53 AM 66.9 °F 51.1 °F 57% 29.96 in 7.0 mi SW 3.5 mph - N/A   Clear
1:33 AM 66.2 °F 48.2 °F 52% 29.97 in 2.5 mi Calm Calm - N/A   Haze
1:50 AM 66.2 °F 50.0 °F 56% 29.97 in 3.0 mi Calm Calm - N/A   Haze
1:53 AM 64.9 °F 50.0 °F 58% 29.97 in 3.0 mi Variable 3.5 mph - N/A   Haze
2:53 AM 63.0 °F 50.0 °F 63% 29.97 in 7.0 mi Calm Calm - N/A   Clear
3:53 AM 60.1 °F 48.9 °F 67% 29.98 in 6.0 mi SSE 4.6 mph - N/A   Haze
4:53 AM 60.1 °F 48.9 °F 67% 29.97 in 8.0 mi SE 3.5 mph - N/A   Clear
5:53 AM 57.9 °F 48.0 °F 70% 29.99 in 7.0 mi ENE 3.5 mph - N/A   Clear
6:53 AM 57.0 °F 46.9 °F 69% 30.01 in 7.0 mi ESE 5.8 mph - N/A   Clear
7:53 AM 62.1 °F 50.0 °F 65% 30.02 in 6.0 mi Calm Calm - N/A   Haze
8:53 AM 66.9 °F 51.1 °F 57% 30.03 in 6.0 mi Calm Calm - N/A   Haze
9:53 AM 69.1 °F 50.0 °F 51% 30.02 in 4.0 mi Calm Calm - N/A   Haze
10:53 AM 75.0 °F 51.1 °F 43% 30.01 in 5.0 mi SW 3.5 mph - N/A   Haze
11:53 AM 81.0 °F 48.9 °F 33% 29.99 in 10.0 mi Calm Calm - N/A   Clear
12:53 PM 84.9 °F 48.0 °F 28% 29.96 in 10.0 mi West 4.6 mph - N/A   Clear
1:53 PM 90.0 °F 44.1 °F 20% 29.93 in 10.0 mi Calm Calm - N/A   Clear
2:53 PM 95.0 °F 37.9 °F 14% 29.90 in 10.0 mi East 13.8 mph 19.6 mph N/A   Clear
3:53 PM 93.0 °F 36.0 °F 13% 29.88 in 10.0 mi ESE 9.2 mph - N/A   Clear
4:53 PM 93.0 °F 36.0 °F 13% 29.86 in 10.0 mi East 10.4 mph 16.1 mph N/A   Clear
5:53 PM 90.0 °F 39.0 °F 17% 29.85 in 10.0 mi ESE 4.6 mph - N/A   Clear
6:53 PM 88.0 °F 41.0 °F 19% 29.84 in 10.0 mi NE 3.5 mph - N/A   Clear
7:53 PM 82.0 °F 48.9 °F 31% 29.85 in 10.0 mi Calm Calm - N/A   Clear
8:53 PM 77.0 °F 46.9 °F 34% 29.87 in 10.0 mi Calm Calm - N/A   Clear
9:53 PM 75.9 °F 44.1 °F 32% 29.88 in 6.0 mi Calm Calm - N/A   Haze
10:53 PM 72.0 °F 45.0 °F 38% 29.88 in 7.0 mi Calm Calm - N/A   Clear
11:53 PM 71.1 °F 46.9 °F 42% 29.88 in 10.0 mi Calm Calm - N/A   Clear